Back to catalog

DELTA 1 DEB

AliveSSO
NORAD 8951·DEBRIS·🇺🇸 United States

Launched Jan 22, 1975 from Vandenberg Space Force Base

Loading…

Next Passes (next 24 hours)

TLE

FreshSource: Space-Track

Epoch: Sep 13, 2026, 18:06 UTC

1 08951U 75004AH  26256.75436160  .00000719  00000-0  12688-3 0  9997
2 08951  98.0582 179.1472 0027529 214.5976 145.3440 14.70273455664327

Track DELTA 1 DEB in real time with AllMySat

Download on the App Store